| time (UTC) | temp F | wind direction | speed MPH | gust MPH | rain 1hr in | rain 24hr in | rain mn in | humidity % | barometer mb |
| 20260502170104 | 54 | 135 | 4.0 | 8.0 | 0.00 | 0.10 | 0.10 | 75 | 1013.2 |
| 20260502164104 | 54 | 99 | 4.0 | 10.0 | 0.00 | 0.10 | 0.10 | 78 | 1013.4 |
| 20260502163105 | 51 | 142 | 2.0 | 8.0 | 0.00 | 0.10 | 0.10 | 79 | 1013.6 |
| 20260502162605 | 51 | 186 | 4.0 | 9.0 | 0.00 | 0.10 | 0.10 | 79 | 1013.6 |
| 20260502162105 | 51 | 142 | 5.0 | 8.0 | 0.00 | 0.10 | 0.10 | 79 | 1013.7 |
| 20260502161604 | 51 | 100 | 3.0 | 9.0 | 0.00 | 0.10 | 0.10 | 79 | 1013.6 |
| 20260502150604 | 52 | 20 | 3.0 | 6.0 | 0.00 | 0.10 | 0.10 | 77 | 1013.8 |
| 20260502150104 | 52 | 28 | 1.0 | 3.0 | 0.00 | 0.10 | 0.10 | 78 | 1013.8 |
| 20260502140104 | 49 | 312 | 3.0 | 9.0 | 0.00 | 0.10 | 0.10 | 82 | 1013.8 |
| 20260502130104 | 50 | 317 | 4.0 | 9.0 | 0.00 | 0.10 | 0.10 | 90 | 1013.8 |
| 20260502123104 | 49 | 310 | 2.0 | 6.0 | 0.00 | 0.10 | 0.10 | 93 | 1013.6 |
| 20260502122603 | 49 | 302 | 3.0 | 8.0 | 0.00 | 0.10 | 0.10 | 93 | 1013.6 |
| 20260502122104 | 49 | 283 | 2.0 | 6.0 | 0.00 | 0.10 | 0.10 | 93 | 1013.6 |
| 20260502121604 | 49 | 303 | 3.0 | 6.0 | 0.00 | 0.10 | 0.10 | 93 | 1013.5 |
| 20260502121106 | 49 | 307 | 3.0 | 5.0 | 0.00 | 0.10 | 0.10 | 93 | 1013.6 |
| 20260502120604 | 49 | 327 | 0.0 | 3.0 | 0.00 | 0.10 | 0.10 | 94 | 1013.5 |
| 20260502115604 | 49 | 344 | 0.0 | 3.0 | 0.00 | 0.10 | 0.10 | 94 | 1013.7 |
| 20260502115104 | 49 | 290 | 1.0 | 6.0 | 0.00 | 0.10 | 0.10 | 94 | 1013.7 |
| 20260502114605 | 49 | 316 | 3.0 | 7.0 | 0.00 | 0.10 | 0.10 | 94 | 1013.6 |
| 20260502113604 | 49 | 314 | 1.0 | 6.0 | 0.00 | 0.10 | 0.10 | 94 | 1013.6 |
| 20260502113104 | 49 | 304 | 2.0 | 3.0 | 0.00 | 0.10 | 0.10 | 94 | 1013.6 |
| 20260502112605 | 49 | 346 | 1.0 | 3.0 | 0.00 | 0.10 | 0.10 | 94 | 1013.5 |
| 20260502111604 | 48 | 354 | 0.0 | 2.0 | 0.00 | 0.10 | 0.10 | 94 | 1013.4 |
| 20260502111105 | 48 | 354 | 1.0 | 3.0 | 0.00 | 0.10 | 0.10 | 94 | 1013.5 |
| 20260502110605 | 48 | 355 | 0.0 | 2.0 | 0.00 | 0.10 | 0.10 | 94 | 1013.3 |
| 20260502105104 | 47 | 355 | 0.0 | 0.0 | 0.00 | 0.10 | 0.10 | 94 | 1013.2 |
| 20260502104604 | 47 | 355 | 0.0 | 0.0 | 0.00 | 0.10 | 0.10 | 93 | 1013.1 |
| 20260502104103 | 47 | 355 | 0.0 | 0.0 | 0.00 | 0.10 | 0.10 | 93 | 1013.1 |
| 20260502103604 | 47 | 355 | 0.0 | 0.0 | 0.00 | 0.10 | 0.10 | 93 | 1013.0 |
| 20260502103104 | 47 | 355 | 0.0 | 0.0 | 0.01 | 0.10 | 0.10 | 93 | 1012.8 |
| 20260502102104 | 48 | 355 | 0.0 | 0.0 | 0.01 | 0.10 | 0.10 | 93 | 1012.9 |
| 20260502101604 | 48 | 355 | 0.0 | 0.0 | 0.01 | 0.10 | 0.10 | 93 | 1012.9 |
| 20260502101103 | 48 | 355 | 0.0 | 0.0 | 0.02 | 0.10 | 0.10 | 93 | 1012.8 |
| 20260502100604 | 48 | 355 | 0.0 | 0.0 | 0.02 | 0.10 | 0.10 | 93 | 1012.8 |
| 20260502100105 | 48 | 355 | 0.0 | 0.0 | 0.02 | 0.10 | 0.10 | 93 | 1012.9 |
| 20260502091105 | 48 | 355 | 0.0 | 0.0 | 0.06 | 0.08 | 0.08 | 93 | 1012.6 |
| 20260502090604 | 48 | 355 | 0.0 | 0.0 | 0.06 | 0.08 | 0.08 | 92 | 1012.7 |
| 20260502090104 | 48 | 355 | 0.0 | 0.0 | 0.06 | 0.08 | 0.08 | 92 | 1012.8 |
| 20260502080104 | 49 | 356 | 0.0 | 0.0 | 0.00 | 0.02 | 0.02 | 91 | 1012.6 |
| 20260502071103 | 49 | 356 | 0.0 | 0.0 | 0.00 | 0.02 | 0.02 | 90 | 1013.3 |
| 20260502070604 | 49 | 356 | 0.0 | 0.0 | 0.01 | 0.02 | 0.02 | 90 | 1013.4 |
| 20260502070104 | 49 | 356 | 0.0 | 0.0 | 0.01 | 0.02 | 0.02 | 90 | 1013.4 |
| 20260502065604 | 49 | 356 | 0.0 | 0.0 | 0.02 | 0.02 | 0.02 | 90 | 1013.4 |
| 20260502064605 | 49 | 356 | 0.0 | 0.0 | 0.02 | 0.02 | 0.02 | 89 | 1013.4 |
| 20260502064104 | 49 | 356 | 0.0 | 1.0 | 0.02 | 0.02 | 0.02 | 89 | 1013.5 |
| 20260502063604 | 49 | 348 | 2.0 | 3.0 | 0.02 | 0.02 | 0.02 | 89 | 1013.6 |
| 20260502063105 | 49 | 316 | 1.0 | 3.0 | 0.02 | 0.02 | 0.02 | 89 | 1013.6 |
| 20260502062603 | 49 | 316 | 0.0 | 2.0 | 0.02 | 0.02 | 0.02 | 89 | 1013.4 |
| 20260502061603 | 49 | 316 | 0.0 | 2.0 | 0.02 | 0.02 | 0.02 | 88 | 1013.4 |
| 20260502061104 | 50 | 316 | 1.0 | 2.0 | 0.02 | 0.02 | 0.02 | 88 | 1013.6 |
| 20260502055605 | 50 | 317 | 0.0 | 0.0 | 0.00 | 0.00 | 0.00 | 88 | 1013.5 |
| 20260502055104 | 50 | 317 | 0.0 | 0.0 | 0.00 | 0.00 | 0.00 | 87 | 1013.3 |
| 20260502054604 | 50 | 317 | 0.0 | 0.0 | 0.00 | 0.00 | 0.00 | 86 | 1013.2 |
| 20260502053604 | 50 | 317 | 0.0 | 0.0 | 0.00 | 0.00 | 0.00 | 85 | 1013.2 |
| 20260502052604 | 51 | 317 | 0.0 | 2.0 | 0.00 | 0.00 | 0.00 | 85 | 1013.3 |
| 20260502052104 | 51 | 317 | 0.0 | 1.0 | 0.00 | 0.00 | 0.00 | 84 | 1013.3 |
| 20260502051604 | 51 | 317 | 1.0 | 2.0 | 0.00 | 0.00 | 0.00 | 84 | 1013.6 |
| 20260502050605 | 51 | 295 | 0.0 | 2.0 | 0.00 | 0.00 | 0.00 | 84 | 1013.5 |
| 20260502045604 | 51 | 295 | 0.0 | 0.0 | 0.00 | 0.00 | 0.00 | 83 | 1013.1 |
| 20260502045104 | 51 | 295 | 0.0 | 0.0 | 0.00 | 0.00 | 0.00 | 83 | 1013.0 |
| 20260502044605 | 51 | 295 | 0.0 | 0.0 | 0.00 | 0.00 | 0.00 | 82 | 1013.0 |
| 20260502044104 | 51 | 295 | 0.0 | 0.0 | 0.00 | 0.00 | 0.00 | 82 | 1013.0 |
| 20260502043103 | 51 | 295 | 0.0 | 0.0 | 0.00 | 0.00 | 0.00 | 81 | 1012.9 |
| 20260502042604 | 51 | 295 | 0.0 | 0.0 | 0.00 | 0.00 | 0.00 | 81 | 1013.1 |
| 20260502042104 | 51 | 295 | 0.0 | 0.0 | 0.00 | 0.00 | 0.00 | 81 | 1013.3 |
| 20260502041604 | 51 | 295 | 0.0 | 0.0 | 0.00 | 0.00 | 0.00 | 80 | 1013.2 |
| 20260502041104 | 51 | 295 | 0.0 | 0.0 | 0.00 | 0.00 | 0.00 | 80 | 1013.1 |
| 20260502040105 | 51 | 295 | 0.0 | 0.0 | 0.00 | 0.00 | 0.00 | 80 | 1013.1 |
| 20260502035104 | 51 | 295 | 0.0 | 0.0 | 0.00 | 0.00 | 0.00 | 80 | 1013.1 |
| 20260502034604 | 51 | 295 | 0.0 | 0.0 | 0.00 | 0.00 | 0.00 | 80 | 1012.9 |
| 20260502034103 | 51 | 295 | 0.0 | 0.0 | 0.00 | 0.00 | 0.00 | 79 | 1012.9 |
| 20260502033604 | 51 | 295 | 0.0 | 0.0 | 0.00 | 0.00 | 0.00 | 79 | 1013.1 |
| 20260502033105 | 51 | 295 | 0.0 | 0.0 | 0.00 | 0.00 | 0.00 | 79 | 1013.0 |
| 20260502032104 | 51 | 295 | 0.0 | 0.0 | 0.00 | 0.00 | 0.00 | 78 | 1013.1 |
| 20260502031604 | 51 | 295 | 0.0 | 0.0 | 0.00 | 0.00 | 0.00 | 78 | 1013.1 |
| 20260502031104 | 51 | 295 | 0.0 | 0.0 | 0.00 | 0.00 | 0.00 | 78 | 1013.0 |
| 20260502030604 | 51 | 295 | 0.0 | 0.0 | 0.00 | 0.00 | 0.00 | 78 | 1013.2 |
| 20260502030105 | 51 | 295 | 0.0 | 0.0 | 0.00 | 0.00 | 0.00 | 78 | 1013.3 |
| 20260502025604 | 51 | 295 | 0.0 | 0.0 | 0.00 | 0.00 | 0.00 | 78 | 1013.3 |
| 20260502025104 | 51 | 295 | 0.0 | 0.0 | 0.00 | 0.00 | 0.00 | 78 | 1013.3 |
| 20260502024603 | 51 | 295 | 0.0 | 0.0 | 0.00 | 0.00 | 0.00 | 77 | 1013.3 |
| 20260502024104 | 51 | 295 | 0.0 | 1.0 | 0.00 | 0.00 | 0.00 | 77 | 1013.3 |
| 20260502023604 | 51 | 295 | 0.0 | 2.0 | 0.00 | 0.00 | 0.00 | 76 | 1013.2 |
| 20260502023104 | 51 | 295 | 0.0 | 0.0 | 0.00 | 0.00 | 0.00 | 76 | 1013.2 |
| 20260502021604 | 51 | 295 | 0.0 | 0.0 | 0.00 | 0.00 | 0.00 | 74 | 1013.1 |
| 20260502021103 | 51 | 295 | 0.0 | 0.0 | 0.00 | 0.00 | 0.00 | 74 | 1013.0 |
| 20260502020603 | 51 | 295 | 0.0 | 0.0 | 0.00 | 0.00 | 0.00 | 74 | 1013.2 |
| 20260502020105 | 51 | 295 | 0.0 | 0.0 | 0.00 | 0.00 | 0.00 | 73 | 1013.1 |
| 20260502015604 | 51 | 295 | 0.0 | 0.0 | 0.00 | 0.00 | 0.00 | 72 | 1013.0 |
| 20260502015103 | 52 | 295 | 0.0 | 0.0 | 0.00 | 0.00 | 0.00 | 71 | 1012.8 |
| 20260502014603 | 52 | 295 | 0.0 | 0.0 | 0.00 | 0.00 | 0.00 | 71 | 1012.8 |
| 20260502014105 | 52 | 295 | 0.0 | 0.0 | 0.00 | 0.00 | 0.00 | 70 | 1012.8 |
| 20260502013603 | 52 | 295 | 0.0 | 0.0 | 0.00 | 0.00 | 0.00 | 69 | 1012.7 |
| 20260502012604 | 53 | 295 | 0.0 | 0.0 | 0.00 | 0.00 | 0.00 | 68 | 1012.8 |
| 20260502012104 | 53 | 295 | 0.0 | 0.0 | 0.00 | 0.00 | 0.00 | 67 | 1012.8 |
| 20260502011104 | 54 | 295 | 0.0 | 0.0 | 0.00 | 0.00 | 0.00 | 65 | 1012.8 |
| 20260502010604 | 54 | 295 | 0.0 | 1.0 | 0.00 | 0.00 | 0.00 | 63 | 1012.8 |
| 20260502010103 | 55 | 295 | 0.0 | 0.0 | 0.00 | 0.00 | 0.00 | 62 | 1012.8 |
| 20260502005604 | 55 | 295 | 0.0 | 0.0 | 0.00 | 0.00 | 0.00 | 62 | 1012.8 |
| 20260502005104 | 55 | 295 | 0.0 | 2.0 | 0.00 | 0.00 | 0.00 | 62 | 1012.9 |
| 20260502004105 | 56 | 295 | 0.0 | 1.0 | 0.00 | 0.00 | 0.00 | 61 | 1012.7 |
| 20260502003605 | 56 | 295 | 0.0 | 0.0 | 0.00 | 0.00 | 0.00 | 59 | 1012.6 |
| 20260502003104 | 57 | 295 | 0.0 | 0.0 | 0.00 | 0.00 | 0.00 | 57 | 1012.5 |
| 20260502002605 | 57 | 295 | 0.0 | 2.0 | 0.00 | 0.00 | 0.00 | 57 | 1012.4 |
| 20260502002105 | 57 | 295 | 0.0 | 2.0 | 0.00 | 0.00 | 0.00 | 56 | 1012.3 |
| 20260502001105 | 57 | 295 | 1.0 | 5.0 | 0.00 | 0.00 | 0.00 | 56 | 1012.3 |
| 20260502000604 | 58 | 286 | 1.0 | 3.0 | 0.00 | 0.00 | 0.00 | 57 | 1012.3 |
| 20260502000104 | 58 | 283 | 1.0 | 6.0 | 0.00 | 0.00 | 0.00 | 57 | 1012.3 |
| 20260501235603 | 58 | 232 | 1.0 | 2.0 | 0.00 | 0.00 | 0.00 | 55 | 1012.4 |
| 20260501234604 | 59 | 238 | 1.0 | 5.0 | 0.00 | 0.00 | 0.00 | 53 | 1012.3 |
| 20260501233604 | 59 | 276 | 5.0 | 13.0 | 0.00 | 0.00 | 0.00 | 50 | 1012.2 |
| 20260501233104 | 60 | 290 | 1.0 | 3.0 | 0.00 | 0.00 | 0.00 | 51 | 1012.2 |
| 20260501232605 | 60 | 295 | 2.0 | 8.0 | 0.00 | 0.00 | 0.00 | 49 | 1012.0 |
| 20260501232104 | 60 | 286 | 3.0 | 7.0 | 0.00 | 0.00 | 0.00 | 48 | 1012.0 |
| 20260501231605 | 60 | 299 | 3.0 | 8.0 | 0.00 | 0.00 | 0.00 | 49 | 1011.9 |
| 20260501231104 | 60 | 294 | 6.0 | 14.0 | 0.00 | 0.00 | 0.00 | 47 | 1011.8 |
| 20260501230604 | 60 | 301 | 2.0 | 9.0 | 0.00 | 0.00 | 0.00 | 46 | 1011.8 |
| 20260501225605 | 61 | 289 | 6.0 | 13.0 | 0.00 | 0.00 | 0.00 | 46 | 1011.6 |
| 20260501225103 | 61 | 258 | 3.0 | 8.0 | 0.00 | 0.00 | 0.00 | 45 | 1011.5 |
| 20260501224604 | 62 | 341 | 7.0 | 12.0 | 0.00 | 0.00 | 0.00 | 44 | 1011.5 |
| 20260501224105 | 62 | 296 | 4.0 | 9.0 | 0.00 | 0.00 | 0.00 | 42 | 1011.4 |
| 20260501223604 | 62 | 326 | 1.0 | 6.0 | 0.00 | 0.00 | 0.00 | 41 | 1011.2 |
| 20260501223104 | 62 | 293 | 2.0 | 3.0 | 0.00 | 0.00 | 0.00 | 41 | 1011.2 |
| 20260501221604 | 63 | 303 | 0.0 | 5.0 | 0.00 | 0.00 | 0.00 | 40 | 1011.1 |
| 20260501221104 | 63 | 303 | 2.0 | 7.0 | 0.00 | 0.00 | 0.00 | 42 | 1011.2 |
| 20260501220604 | 63 | 346 | 3.0 | 5.0 | 0.00 | 0.00 | 0.00 | 41 | 1011.2 |
| 20260501220104 | 63 | 336 | 2.0 | 6.0 | 0.00 | 0.00 | 0.00 | 40 | 1011.2 |
| 20260501215104 | 63 | 345 | 2.0 | 3.0 | 0.00 | 0.00 | 0.00 | 39 | 1011.2 |
| 20260501214604 | 63 | 354 | 2.0 | 9.0 | 0.00 | 0.00 | 0.00 | 39 | 1011.1 |
| 20260501214103 | 63 | 294 | 4.0 | 8.0 | 0.00 | 0.00 | 0.00 | 38 | 1011.1 |
| 20260501213604 | 64 | 312 | 3.0 | 10.0 | 0.00 | 0.00 | 0.00 | 39 | 1011.0 |
| 20260501213105 | 64 | 288 | 5.0 | 9.0 | 0.00 | 0.00 | 0.00 | 38 | 1010.9 |
| 20260501212603 | 65 | 296 | 3.0 | 7.0 | 0.00 | 0.00 | 0.00 | 36 | 1010.9 |
| 20260501211604 | 64 | 2 | 1.0 | 3.0 | 0.00 | 0.00 | 0.00 | 39 | 1010.7 |
| 20260501211103 | 64 | 295 | 1.0 | 3.0 | 0.00 | 0.00 | 0.00 | 38 | 1010.8 |
| 20260501210104 | 66 | 308 | 2.0 | 7.0 | 0.00 | 0.00 | 0.00 | 39 | 1010.8 |
| 20260501205103 | 66 | 88 | 1.0 | 3.0 | 0.00 | 0.00 | 0.00 | 40 | 1010.8 |
| 20260501204604 | 66 | 328 | 2.0 | 6.0 | 0.00 | 0.00 | 0.00 | 37 | 1010.8 |
| 20260501204104 | 66 | 317 | 2.0 | 7.0 | 0.00 | 0.00 | 0.00 | 40 | 1010.9 |
| 20260501203604 | 66 | 303 | 5.0 | 9.0 | 0.00 | 0.00 | 0.00 | 39 | 1010.9 |
| 20260501203104 | 66 | 268 | 5.0 | 10.0 | 0.00 | 0.00 | 0.00 | 37 | 1010.9 |
| 20260501202604 | 67 | 303 | 7.0 | 12.0 | 0.00 | 0.00 | 0.00 | 36 | 1011.0 |
| 20260501202104 | 66 | 281 | 3.0 | 8.0 | 0.00 | 0.00 | 0.00 | 40 | 1011.0 |
| 20260501201604 | 66 | 256 | 2.0 | 8.0 | 0.00 | 0.00 | 0.00 | 41 | 1011.0 |
| 20260501201104 | 67 | 273 | 5.0 | 10.0 | 0.00 | 0.00 | 0.00 | 40 | 1011.2 |
| 20260501200604 | 66 | 282 | 6.0 | 12.0 | 0.00 | 0.00 | 0.00 | 39 | 1011.3 |
| 20260501200103 | 66 | 318 | 6.0 | 9.0 | 0.00 | 0.00 | 0.00 | 40 | 1011.2 |
| 20260501195603 | 66 | 269 | 2.0 | 8.0 | 0.00 | 0.00 | 0.00 | 38 | 1011.1 |
| 20260501195103 | 66 | 258 | 5.0 | 9.0 | 0.00 | 0.00 | 0.00 | 40 | 1011.3 |
| 20260501194604 | 66 | 279 | 2.0 | 8.0 | 0.00 | 0.00 | 0.00 | 40 | 1011.3 |
| 20260501194103 | 65 | 318 | 1.0 | 3.0 | 0.00 | 0.00 | 0.00 | 40 | 1011.3 |
| 20260501193604 | 65 | 339 | 3.0 | 9.0 | 0.00 | 0.00 | 0.00 | 40 | 1011.3 |
| 20260501193104 | 65 | 307 | 0.0 | 12.0 | 0.00 | 0.00 | 0.00 | 40 | 1011.3 |
| 20260501192105 | 65 | 351 | 2.0 | 7.0 | 0.00 | 0.00 | 0.00 | 43 | 1011.5 |
| 20260501191603 | 65 | 338 | 2.0 | 3.0 | 0.00 | 0.00 | 0.00 | 41 | 1011.5 |
| 20260501191104 | 64 | 352 | 3.0 | 13.0 | 0.00 | 0.01 | 0.00 | 40 | 1011.6 |
| 20260501190604 | 65 | 234 | 1.0 | 8.0 | 0.00 | 0.01 | 0.00 | 42 | 1011.5 |
| 20260501185603 | 64 | 302 | 2.0 | 5.0 | 0.00 | 0.01 | 0.00 | 42 | 1011.7 |
| 20260501185103 | 64 | 312 | 1.0 | 6.0 | 0.00 | 0.01 | 0.00 | 39 | 1011.7 |
| 20260501184605 | 64 | 286 | 1.0 | 7.0 | 0.00 | 0.01 | 0.00 | 40 | 1011.8 |
| 20260501184104 | 64 | 316 | 2.0 | 12.0 | 0.00 | 0.01 | 0.00 | 40 | 1011.9 |
| 20260501183604 | 64 | 336 | 2.0 | 10.0 | 0.00 | 0.01 | 0.00 | 39 | 1011.9 |
| 20260501183103 | 63 | 297 | 3.0 | 9.0 | 0.00 | 0.01 | 0.00 | 39 | 1012.0 |
| 20260501182604 | 64 | 13 | 6.0 | 14.0 | 0.00 | 0.01 | 0.00 | 39 | 1012.1 |
| 20260501182104 | 64 | 344 | 3.0 | 14.0 | 0.00 | 0.01 | 0.00 | 40 | 1012.0 |
| 20260501181604 | 63 | 289 | 2.0 | 6.0 | 0.00 | 0.01 | 0.00 | 39 | 1012.0 |
| 20260501181105 | 63 | 33 | 0.0 | 2.0 | 0.00 | 0.01 | 0.00 | 40 | 1012.1 |
| 20260501180604 | 63 | 343 | 5.0 | 12.0 | 0.00 | 0.01 | 0.00 | 41 | 1012.2 |
| 20260501175605 | 63 | 353 | 3.0 | 14.0 | 0.00 | 0.01 | 0.00 | 40 | 1012.1 |